Tracking 18980 objects as of 21-Feb-2018
HD Live streaming from Space Station
objects crossing your sky now

FENGYUN 1C DEB

Track FENGYUN 1C DEB now!
10-day predictions


NORAD ID: 31618
Int'l Code: 1999-025BZY
Perigee: 722.6 km
Apogee: 963.1 km
Inclination: 99.4 °
Period: 101.6 minutes
Semi major axis: 7213 km
RCS: 0.0127 m2 (small)
Launch date: May 10, 1999
Source: People's Republic of China (PRC)
Launch site: Taiyaun Space Center, China (TSC)

Note: This is SATELLITE DEBRIS
aabbcc
Your satellite tracking list
Your tracking list is empty




NASA's NSSDC Master Catalog

Two Line Element Set (TLE):
1 31618U 99025BZY 18050.62136447 +.00000210 +00000-0 +11216-3 0  9998
2 31618 099.3966 337.1099 0166705 060.5557 301.2135 14.16950181557073
Source of the keplerian elements: AFSPC